GFSFLT1_con_3kmhel_072.txt.gz
Helicity
144 128 65 44 67 133 90 34 122 113 105 198 145 116 148 89 97 195 121 78 60 28 39 54 32 22 59 86 46 39 46 38
153 115 82 55 99 128 61 65 79 106 156 179 133 121 130 102 51 84 169 108 125 109 66 39 42 42 60 60 58 52 61 66
171 135 81 79 89 89 81 46 27 47 95 117 157 229 271 282 229 182 228 189 108 126 48 36 37 73 64 69 77 88 68 103
182 168 95 98 87 103 112 79 66 51 44 188 245 207 343 441 274 288 297 200 122 47 50 62 66 80 80 69 102 107 105 98
193 167 104 101 79 78 67 61 78 51 102 124 68 60 125 139 150 255 150 52 83 89 69 57 56 56 35 100 99 141 153 142
205 201 119 89 79 81 74 52 34 38 97 96 56 83 -7 -38 70 55 -51 -84 -40 -61 -41 -17 26 36 21 -43 124 132 141 182
152 168 172 124 89 75 66 61 26 4 26 -7 -15 -16 -14 -32 -41 -29 -98 -118 -84 -16 -7 -57 4 43 14 67 84 141 158 160
205 215 191 194 166 131 97 82 48 16 -10 -28 -52 -80 -95 -66 -41 -55 -104 -141 -151 -60 -37 -26 13 59 103 137 147 146 166 158
199 221 207 214 217 219 193 134 90 62 14 -54 -73 -81 -106 -143 -183 -163 -168 -174 -99 -140 -156 -36 11 86 104 135 184 147 122 119
156 171 216 217 239 256 250 206 138 137 80 41 -29 -57 -60 -100 -128 -170 -188 -181 -176 -192 -152 -106 -14 70 44 72 68 107 92 41
93 118 171 193 225 272 273 244 200 194 191 146 111 59 30 10 -4 -24 -43 -39 -18 -10 -35 8 31 77 68 75 79 166 118 230
102 151 164 194 225 268 289 281 244 227 206 214 196 164 130 95 65 42 37 27 43 46 65 62 58 124 145 119 109 126 154 236
63 126 202 223 245 275 308 316 310 274 283 298 252 227 208 157 176 139 171 119 130 115 143 97 109 227 277 124 87 170 187 222
60 93 141 197 248 306 311 311 328 326 294 238 218 189 173 158 314 124 164 183 172 140 177 88 160 142 61 36 112 186 206 266
79 95 118 138 174 227 271 290 313 305 317 260 206 200 170 204 271 228 206 257 217 156 72 158 202 155 116 129 161 202 294 315
74 86 134 135 141 165 185 237 284 301 303 282 262 223 130 126 188 226 249 240 184 122 55 134 155 120 156 207 256 326 369 390
59 39 82 165 187 178 190 205 238 278 265 243 220 194 157 126 169 211 216 241 228 229 205 211 181 179 184 235 307 341 361 415
88 111 102 134 195 226 192 198 243 250 231 199 198 207 182 158 132 201 236 268 317 284 280 285 223 223 229 281 335 387 448 514
111 71 67 138 270 246 205 226 256 273 237 194 184 215 228 298 301 281 316 350 318 304 302 322 349 309 340 420 488 517 548 520

GFSFLT1_con_3kmhel_075.txt.gz
Helicity
105 96 89 72 66 83 124 49 134 141 92 99 108 158 179 267 197 161 135 209 138 84 180 217 79 67 17 -5 24 39 23 30
106 91 84 75 72 102 98 54 101 111 89 64 118 107 115 235 283 156 182 210 162 230 219 35 29 48 21 6 43 46 45 47
118 122 82 77 79 93 69 5 75 40 59 57 103 112 161 155 266 276 201 218 105 178 63 48 64 62 48 21 58 50 56 52
132 135 100 78 69 85 84 67 76 72 135 177 170 221 199 191 186 335 238 100 111 66 54 53 46 63 44 39 53 58 62 71
134 139 106 93 43 64 58 86 111 97 119 144 129 175 192 123 128 154 175 144 115 132 118 96 44 47 36 53 57 76 88 84
130 132 113 83 52 39 65 77 112 88 87 96 128 105 84 117 128 165 204 179 157 88 51 78 -11 6 25 62 93 92 83 118
94 93 115 83 54 39 53 83 75 74 75 80 112 61 30 88 179 123 99 88 47 1 -34 -53 -28 38 23 17 60 78 104 112
151 124 147 108 99 74 32 58 59 76 86 65 15 -27 35 79 134 127 111 70 7 -15 -8 -3 10 57 51 59 54 52 88 103
122 135 130 130 117 123 81 62 58 59 78 59 17 -25 -21 2 47 62 52 63 42 10 -7 -19 -21 -23 1 -2 24 46 70 95
80 81 105 113 121 135 142 108 78 66 64 52 31 1 -16 -36 -34 -41 -43 -29 -24 -25 -25 -50 -57 -63 -59 -15 38 42 59 81
51 47 70 84 95 117 113 122 128 107 98 77 48 42 19 -12 -43 -52 -45 -83 -92 -90 -61 -24 -22 -54 -43 0 46 45 62 100
32 9 11 74 106 129 132 123 130 136 132 123 104 98 83 54 22 2 6 -19 -7 17 26 18 19 65 78 71 55 57 44 69
30 43 62 90 114 132 170 174 160 181 181 168 130 81 117 129 116 94 92 68 74 59 67 71 103 176 229 159 160 201 185 103
34 52 64 74 92 120 143 176 199 179 173 165 145 122 61 31 18 -25 46 68 63 99 108 122 128 131 169 166 161 189 225 128
37 46 56 54 75 111 137 156 182 207 206 188 178 155 147 122 80 96 73 107 136 63 117 104 179 148 142 126 171 147 46 57
45 52 66 52 69 75 101 119 158 179 200 204 226 198 171 139 146 155 173 159 183 141 134 157 295 118 103 145 153 194 184 229
69 58 66 80 105 100 106 140 184 170 150 157 166 165 180 208 186 201 184 185 187 169 172 208 274 142 95 85 149 213 257 290
58 74 64 76 95 141 142 171 160 158 117 112 126 144 144 164 195 189 167 147 155 160 166 201 197 197 196 188 214 261 307 389
46 60 67 77 86 144 163 149 184 159 106 94 110 141 140 127 146 167 176 176 176 214 203 204 227 218 203 256 295 371 415 419

GFSFLT1_con_3kmhel_078.txt.gz
Helicity
109 89 69 72 77 86 118 156 45 77 60 105 161 233 372 336 201 237 337 174 150 156 62 103 46 63 127 104 64 42 21 34
122 113 92 75 76 99 134 72 29 81 59 59 139 240 187 145 162 131 34 -45 115 86 101 1 2 58 74 95 72 36 26 30
123 122 107 73 77 87 114 20 41 12 15 11 151 147 126 139 132 81 94 30 91 57 21 97 75 168 178 67 41 34 34 38
110 115 105 80 81 74 86 32 26 1 -10 71 147 227 226 292 252 230 127 93 101 49 71 134 187 232 43 78 59 34 36 48
83 97 120 86 80 64 58 59 69 47 65 92 97 159 177 261 281 268 325 190 126 104 84 80 205 30 28 32 34 25 11 39
87 64 92 99 86 60 31 64 83 123 111 84 73 41 120 234 295 354 301 268 154 167 266 107 92 39 23 18 28 14 27 28
58 64 85 99 91 77 46 55 69 107 153 144 146 91 104 94 190 209 229 276 248 189 108 91 108 15 -11 2 13 19 25 53
56 107 108 108 103 83 55 67 80 92 107 126 158 154 73 102 103 89 134 188 177 180 -46 -52 -53 -104 -78 -101 -63 -39 48 36
55 93 103 78 88 78 71 55 83 93 108 108 104 103 70 42 46 71 157 162 175 52 19 -27 -79 -79 -117 -126 -86 -1 52 73
45 68 69 73 62 74 84 58 55 71 87 78 90 89 64 39 55 81 127 131 120 88 34 24 -34 -41 -68 -81 -40 21 54 46
45 77 54 39 43 48 57 56 62 64 66 60 65 88 73 52 88 115 126 125 101 118 91 44 36 17 -14 -37 -63 19 40 66
41 48 39 32 34 40 38 58 72 78 69 73 69 80 99 83 111 131 120 108 105 102 87 63 58 65 63 69 45 63 85 139
25 48 45 38 37 43 69 78 80 92 107 105 101 86 96 97 86 119 140 136 133 118 96 80 74 65 69 89 115 189 215 292
9 21 47 61 75 85 88 102 108 125 113 94 98 119 128 111 77 44 46 44 49 78 78 92 105 107 87 105 188 226 207 152
33 27 29 49 56 56 71 102 130 146 146 140 116 126 160 132 99 89 79 81 70 59 87 131 101 104 129 145 153 178 193 112
31 44 29 37 45 46 52 67 92 112 128 131 145 122 93 71 67 89 119 119 104 82 106 127 134 110 146 231 280 239 177 85
20 44 45 40 36 51 75 60 69 86 91 96 83 105 121 122 121 115 123 133 112 92 104 131 166 164 179 221 262 265 38 109
23 34 51 46 42 77 85 87 88 72 71 60 67 82 88 102 112 119 118 111 107 98 104 119 108 127 170 188 256 140 137 203
103 44 43 39 52 64 37 72 86 94 77 77 81 72 59 66 81 92 116 126 134 131 91 81 102 146 178 176 199 227 340 351

GFSFLT1_con_3kmhel_081.txt.gz
Helicity
95 148 126 91 105 126 130 175 209 132 85 85 114 258 210 205 306 519 444 453 480 138 117 41 122 92 102 72 59 50 33 44
128 141 137 133 124 116 158 177 104 59 68 102 147 310 307 312 405 307 167 126 29 13 64 71 154 169 144 80 75 97 74 68
153 126 120 124 115 111 123 109 54 39 60 95 126 226 370 384 219 135 102 153 -26 32 59 56 102 119 105 53 78 121 67 62
159 106 109 133 103 107 108 110 75 56 43 142 157 211 405 284 183 205 145 183 116 -61 20 108 145 47 34 45 72 98 57 55
120 110 100 125 104 100 115 107 92 99 107 216 235 257 291 206 210 96 79 125 92 17 75 51 54 8 1 36 41 39 68 64
72 109 89 100 117 101 106 115 92 107 181 218 190 204 216 199 150 92 63 47 22 0 -10 43 42 73 80 110 153 34 23 73
47 105 98 112 117 98 89 101 121 109 169 172 199 241 226 239 203 173 145 188 155 123 12 14 59 34 91 149 86 12 60 41
53 112 132 131 126 103 71 81 96 114 152 178 168 238 234 232 279 224 246 310 226 181 160 73 14 28 62 109 -5 77 5 18
42 79 116 133 120 114 62 74 72 111 120 145 157 227 232 164 224 229 294 372 304 252 270 183 117 -7 -25 -121 -57 -10 73 93
35 45 125 120 114 111 68 66 60 81 120 114 116 143 185 193 165 219 288 298 298 258 249 229 144 50 -17 -78 2 -16 93 0
38 37 99 106 103 105 75 41 37 71 76 106 100 117 108 125 134 163 184 141 153 155 180 180 143 57 15 -69 -81 44 53 90
25 39 94 110 95 112 84 65 49 71 86 73 80 98 85 69 73 102 110 134 157 114 113 92 58 42 19 -6 -34 25 25 62
32 33 63 101 83 97 106 87 75 77 96 105 99 96 98 111 77 91 109 136 144 142 143 80 68 56 36 44 48 64 69 85
25 23 30 62 68 84 90 99 86 93 105 127 135 139 139 155 128 105 115 120 128 115 104 124 126 114 103 93 120 134 138 129
17 31 28 32 50 68 81 93 110 114 119 146 154 166 171 175 181 153 151 143 134 129 137 122 121 113 125 133 133 147 149 158
24 26 37 40 46 61 88 96 138 148 163 175 199 208 190 166 177 154 175 176 176 171 163 149 143 137 131 150 183 171 177 220
107 89 46 43 46 46 63 68 91 134 145 182 186 203 218 204 181 191 186 180 179 190 192 197 186 184 185 215 199 221 240 254
92 115 120 73 51 57 49 60 75 114 110 100 121 164 192 209 193 189 211 221 216 208 232 225 210 210 230 232 238 234 302 296
68 123 160 146 89 84 61 44 90 110 99 95 106 132 144 162 172 195 217 248 247 232 238 240 207 232 272 274 292 294 255 276

GFSFLT1_con_3kmhel_084.txt.gz
Helicity
117 160 199 204 190 140 275 218 203 256 247 195 158 187 237 334 469 625 790 716 553 368 446 181 228 268 249 205 195 160 131 68
203 227 258 179 239 253 275 267 218 204 138 132 119 151 198 226 340 382 457 564 500 358 304 244 237 217 171 180 180 132 130 96
201 310 310 187 249 205 264 215 179 145 111 146 135 155 143 95 103 147 353 464 379 274 351 294 210 139 162 164 174 130 85 46
250 326 285 224 222 182 201 181 158 160 163 184 186 160 194 246 244 283 270 197 370 319 239 211 181 106 109 95 105 107 81 153
218 304 256 235 179 174 197 178 157 184 214 200 279 289 268 208 271 181 139 164 163 110 48 -13 -6 -9 19 19 -13 16 106 122
151 264 226 214 174 197 192 157 153 176 228 235 261 270 242 259 190 129 149 44 5 48 77 -2 -53 -36 -7 20 26 -29 60 112
108 256 207 171 217 215 221 169 142 163 242 268 249 304 328 332 203 182 140 71 -9 68 86 45 -7 23 14 55 22 24 42 125
149 312 252 178 236 241 228 156 153 129 226 252 264 295 365 371 293 191 174 125 70 32 80 99 51 53 132 42 2 29 94 97
125 241 234 159 226 255 194 147 157 157 158 210 223 297 290 288 285 226 179 110 97 121 65 121 62 4 29 -5 136 30 125 169
113 140 274 171 220 262 176 156 168 164 128 169 175 256 306 292 268 271 223 151 123 145 165 116 149 184 37 70 49 -15 -42 -63
125 136 292 215 217 226 187 138 136 189 147 145 160 177 249 246 255 274 229 236 188 202 200 159 127 112 88 36 15 48 37 97
63 104 210 228 196 226 218 148 129 176 197 162 130 146 191 216 204 239 249 265 226 219 241 230 201 186 161 82 60 41 46 42
41 60 126 183 198 239 224 175 141 145 216 220 176 155 129 172 195 178 192 214 226 230 191 166 150 141 143 97 86 44 26 57
3 34 51 141 188 232 194 160 152 102 203 243 243 187 181 178 180 185 181 169 177 182 192 215 196 177 137 114 69 60 38 66
31 20 44 42 108 168 176 158 177 140 135 219 277 260 243 199 187 175 165 202 187 201 204 202 188 182 139 80 83 100 96 90
92 29 42 41 78 118 147 167 198 210 165 183 253 291 266 249 242 242 202 204 233 246 258 233 199 197 173 168 167 161 166 171
130 179 129 93 121 142 123 172 215 238 200 198 233 293 310 297 295 311 279 239 257 248 264 283 263 237 238 240 237 223 208 206
144 149 166 152 201 199 107 124 180 234 224 191 187 226 272 311 306 289 296 286 278 293 288 295 279 258 262 276 259 244 229 226
81 51 151 112 137 171 261 204 151 160 186 194 190 203 222 264 308 303 284 301 305 311 302 295 266 250 270 297 295 279 249 232